Location: Tabor
(49.4170°N, 14.6670°E)
Time: 10:26:35
(UTC+02:00)

ISS - Pass Details

Date: 21 May 2021
Orbit: 417 x 422 km, 51.6° (Epoch: 13 June)

Event Time Altitude Azimuth Distance (km) Brightness Sun altitude
Rises 00:32:15 0° 288° (WNW) 2,369 0.4 -20.2°
Reaches altitude 10° 00:34:21 10° 288° (WNW) 1,504 -0.7 -20.2°
Enters shadow 00:37:16 64° 276° (W) 470 -3.6 -20.3°
